www.pogodaiklimat.ru

Погода и климат >> Архив погоды >> Россия >> Красноярский край >> Щетинкино


ПОГОДА в Щетинкино

  • Прогноз погоды в Щетинкино
  • Монитор погоды в Щетинкино

АРХИВ ПОГОДЫ в Щетинкино

Время (UTC), дата Ветер
(напр.,м/с)
 
Видим.   Явления Облачность Т
(С)
Тd
(С)
f
(%)
Тe
(С)
Тes
(С)
Комфортность P
(гПа)
Po
(гПа)
Тmin
(С)
Tmax
(С)
R
(мм)
R24
(мм)
S
(см)
18 9.06 В 2 н/о слаб. ливневой дождь 10/10 600 м
[Cb cap]
+12.1 +10.4 89 +11 +11 1007.3 916.1
21 9.06 Ю 1 50 км в посл. час ливневой дождь 9/9 600 м
[Cb cap]
+10.5 +9.1 91 +10 +10 1007.4 915.6
00 10.06 штиль 0 50 км {ливн. осадки} 9/9 600 м
[Cb cap]
+11.4 +10.0 91 +11 +11 1007.3 915.7 +10.4 7
03 10.06 ЮВ 1 50 км 10/10 600 м
[Cb cap]
+12.4 +11.1 92 +12 +12 1006.8 915.6
06 10.06 Ю 2 50 км 9/9 600 м
[Cb cap]
+14.2 +10.8 80 +14 +15 1005.9 915.4
09 10.06 Ю 2 50 км в посл. час ливневой дождь 10/10 600 м
[Cb cap]
+13.0 +10.9 87 +12 +12 1006.1 915.2
12 10.06 ЮВ 2 50 км {ливн. осадки} 10/10 600 м
[Cb cap]
+12.9 +10.6 86 +12 +12 1006.8 915.8 +14.2 4
15 10.06 ЮВ 2 н/о 10/10 600 м
[Cb cap]
+12.2 +10.5 89 +11 +11 1008.4 917.1
18 10.06 ЮВ 2 н/о 9/9 600 м
[Cb cap]
+11.8 +10.2 90 +11 +11 1009.3 917.7
21 10.06 Ю 3 50 км {ливн. осадки} 9/9 600 м
[Cb cap]
+11.1 +9.7 91 +9 +9 1010.0 918.2
00 11.06 ЮВ 2 50 км {ливн. осадки} 9/9 600 м
[Cb cap]
+11.2 +9.8 91 +10 +10 1011.3 919.4 +10.8 1
03 11.06 З 3 50 км 9/9 600 м
[Cb cap]
+14.0 +8.7 70 +13 +14 1011.7 920.5
06 11.06 З 2 10 км слаб. ливневой дождь 10/10 600 м
[Cb cap]
+13.0 +9.3 78 +12 +12 1012.7 921.2
09 11.06 З 4 50 км в посл. час ливневой дождь 9/8 600 м
[Cb cap Ci fib]
+14.8 +10.4 75 +14 +15 1013.6 922.5
12 11.06 ЮЗ 3 50 км {ливн. осадки} 9/6 600 м
[Cb cap Ac trans Ci fib]
+15.8 +8.6 62 +15 +16 1013.9 923.1 +15.8 2
15 11.06 Ю 2 н/о 9/0
[Ac trans Ci sp]
+13.0 +8.4 74 +12 +12 1015.8 924.0
18 11.06 В 2 н/о 9/0
[Ac trans]
+11.6 +8.8 83 +10 +10 1017.0 924.6
21 11.06 ЮВ 3 50 км 9/0
[Ac trans]
+10.6 +8.4 86 +9 +9 1017.2 924.5
00 12.06 Ю 2 50 км 9/0 2000 м
[Ac As]
+12.8 +9.3 79 +12 +13 1016.1 924.2 +9.8
03 12.06 Ю 4 50 км 6/6 600 м
[Cu med, cong]
+16.2 +9.9 66 +16 +19 1013.7 923.0
06 12.06 Ю 5
{10}
50 км 6/6 600 м
[Cu hum]
+19.8 +8.8 49 +21 +24 комфорт 1010.7 921.4
09 12.06 Ю 4
{10}
50 км 1/1 600 м
[Cu hum]
+22.0 +7.6 39 +23 +29 комфорт 1008.2 919.7
12 12.06 Ю 4 50 км ясно +21.8 +6.3 37 +23 +24 комфорт 1006.8 918.3 +22.6
15 12.06 штиль 0 50 км ясно +13.8 +8.4 70 +14 +14 1009.6 918.5
18 12.06 штиль 0 н/о 3/0
[Ci sp]
+8.2 +6.2 87 +7 +7 1011.6 918.6
21 12.06 штиль 0 50 км 4/0
[Ci sp]
+6.0 +4.6 91 +5 +5 1011.4 917.7
00 13.06 С 1 50 км 9/4 600 м
[Sc Ac As Ci]
+9.3 +6.7 84 +9 +10 1009.8 917.4 +6.0
03 13.06 ЮВ 2 50 км 9/5 600 м
[Sc Ac As]
+18.8 +8.9 53 +20 +23 1006.3 917.0
06 13.06 З 2 50 км 9/4 600 м
[Cb cap Ac trans Ci fib]
+20.0 +7.1 43 +21 +27 комфорт 1005.0 916.2
09 13.06 Ю 3 50 км 9/6 600 м
[Cb cap Ac trans Ci fib]
+21.2 +7.0 40 +22 +24 комфорт 1004.2 915.7
12 13.06 Ю 2 50 км 8/3 600 м
[Cu hum Ci fib]
+21.0 +9.2 47 +23 +24 комфорт 1003.7 915.4 +22.4
15 13.06 штиль 0 50 км 4/0
[Ci fib]
+15.0 +9.4 69 +15 +15 1005.5 915.2
18 13.06 СЗ 1 н/о 3/0
[Ci fib]
+8.8 +7.1 89 +8 +8 1007.2 914.8
21 13.06 штиль 0 50 км 4/0
[Ci fib]
+5.9 +4.5 91 +5 +5 1007.1 913.8
00 14.06 штиль 0 50 км 8/0
[Ci fib]
+11.3 +9.7 90 +11 +14 1005.2 913.8 +5.4
03 14.06 В 1 50 км 8/3 600 м
[Cu med, cong Ac trans Ci fib]
+21.1 +10.7 51 +23 +29 комфорт 1001.2 913.1
06 14.06 З 3 50 км 8/5 600 м
[Cb calv Ci ing]
+23.6 +6.6 33 +24 +30 комфорт 999.4 912.1
09 14.06 СЗ 3 50 км 9/4 600 м
[Cu med, cong Ci fib]
+23.8 +8.8 38 +24 +29 комфорт 999.1 911.9
12 14.06 С 3
{11}
50 км 9/9 600 м
[Cb cap]
+17.6 +11.0 65 +18 +18 1002.4 913.2 +24.2
15 14.06 штиль 0 50 км {ливн. осадки} 9/6 600 м
[Cb cap Ac trans]
+14.2 +11.8 85 +14 +14 1004.6 914.3
18 14.06 СЗ 1 н/о {ливн. осадки} 8/3 600 м
[Cb cap Ac trans]
+11.4 +10.0 91 +11 +11 1006.2 914.7
21 14.06 С 2 50 км 4/0
[Ac trans]
+9.2 +7.7 90 +7 +7 1006.8 914.6
00 15.06 штиль 0 20 км 10/3 600 м
[Sc Ac trans Ci fib]
+11.4 +9.6 89 +11 +12 1006.5 915.0 +8.8 0.4
03 15.06 Ю 2 50 км 6/1 600 м
[Cu med, cong Ci]
+20.8 +11.4 55 +23 +33 комфорт 1002.5 914.0
06 15.06 ЮЗ 3 50 км 9/6 600 м
[Cb calv Ci]
+23.4 +10.6 44 +25 +30 комфорт 1000.7 913.3
09 15.06 ЮЗ 1 50 км 9/9 600 м
[Cb cap]
+21.6 +10.3 49 +23 +25 комфорт 1000.8 912.9
12 15.06 С 2 50 км гроза без осадков {ливн. осадки} 9/9 600 м
[Cb cap]
+16.8 +12.3 75 +17 +17 1004.0 914.4 +24.0 1
15 15.06 СЗ 1 50 км {гроза} 9/1 600 м
[Cb cap Ac cuf Ci]
+14.8 +12.4 86 +15 +15 1005.2 914.9
18 15.06 С 1 н/о {гроза} 9/0
[Ac As]
+12.0 +10.3 89 +12 +12 1006.2 915.0
21 15.06 С 1 500 м туман ?/? +10.8 +10.8 100 +10 +10 1005.7 914.2
00 16.06 С 1 4000 м слаб. дождь {туман} 9/9 600 м
[Sc]
+11.2 +10.0 92 +11 +11 1005.4 914.0 +10.8 0.0
03 16.06 штиль 0 50 км 6/0
[Ac trans Ci fib]
+19.4 +13.7 70 +21 +32 комфорт 1002.9 914.3
06 16.06 Ю 3 50 км 8/4 600 м
[Cb calv Ac trans Ci fib]
+24.4 +11.5 44 +26 +31 жарко 999.9 912.8
09 16.06 Ю 3 50 км гроза без осадков 9/9 600 м
[Cb cap]
+26.0 +10.8 39 +27 +28 жарко 997.4 911.0
12 16.06 С 2 50 км гроза без осадков {ливн. осадки} 10/10 600 м
[Cb cap]
+13.2 +12.8 97 +12 +12 1003.5 913.0 +26.4 44
15 16.06 штиль 0 50 км {гроза} 8/0 2000 м
[Ac trans]
+13.3 +12.9 97 +13 +13 1003.9 913.4

 

Местоположение метеостанции Щетинкино (Красноярский край, Россия): широта 54.53 долгота 93.43 высота над уровнем моря 804 м.

В архиве по умолчанию представлена погода в Щетинкино за последнюю неделю. Архивные данные за месяц целиком и за предыдущие месяцы, начиная с января 2011 года, Вы можете получить, выбрав интересующий диапазон дат из раскрывающегося списка и нажав кнопку "Ввод!".


*Определитесь, кто Вы:
робот инопланетянин человек

Внимание! Время в таблицах - всемирное. Для получения местного времени необходимо прибавить поправку, которая равна 7 ч.

Смотрите также архив погоды в соседних городах и на ближайших метеорологических станциях:

Погода в Артемовске (Красноярский край, Россия) (3 км)
Погода в Анастасино (Красноярский край, Россия) (66 км)
Погода в Курагино (Красноярский край, Россия) (85 км)
Погода в Идринском (Красноярский край, Россия) (86 км)
Погода в Казыре (Красноярский край, Россия) (106 км)
Погода в Теси (Красноярский край, Россия) (109 км)
Погода в Каратузском (Красноярский край, Россия) (110 км)
Погода в Агинском (Красноярский край, Россия) (123 км)
Погода в Лебяжьем (Красноярский край, Россия) (125 км)
Погода в Шалинском (Красноярский край, Россия) (134 км)

Пояснения к столбцам:

Ветер - указаны скорость ветра в м/с - средняя за 10 мин, порывы в срок и между сроками (в фигурных скобках) и направление, откуда дует ветер: С - северный, СВ - северо-восточный, В - восточный, ЮВ - юго-восточный, Ю - южный, ЮЗ - юго-западный, З - западный, СЗ - северо-западный.
Видимость - горизонтальная дальность видимости в метрах или километрах. При видимости от 1 до 10 км при отсутствии осадков обычно наблюдается дымка, при ухудшении видимости до 1 км и менее - туман. В сухую погоду видимость может ухудшаться дымом, пылью или мглою.
Явления - указаны атмосферные явления, наблюдавшиеся в срок или в последний час перед сроком; фигурными скобками обозначены явления, наблюдавшиеся между сроками (за 1-3 часа до срока); квадратными скобками обозначены град или гололедные отложения с указанием их диаметра в мм.
Облачность - указаны через наклонную черту общая и нижняя облачность в баллах и высота нижней границы облаков в метрах; квадратными скобками обозначены формы облаков: Ci - перистые, Cs - перисто-слоистые, Cc - перисто-кучевые, Ac - высококучевые, As - высокослоистые, Sc - слоисто-кучевые, Ns - слоисто-дождевые, Cu - кучевые, Cb - кучево-дождевые. Подробнее классификацию облаков см. в Атласе облаков (PDF).
T - Температура воздуха - температура, измеренная на высоте 2 м над землей.
Td - Температура точки росы - температура, при понижении до которой содержащийся в воздухе водяной пар достигнет насыщения.
f - Относительная влажность воздуха - влажноcть воздуха, измеренная на высоте 2 м над землей.
Te - Эффективная температура - температура, которую ощущает одетый по сезону человек в тени. Характеристика душности погоды. При расчете учитывается влияние влажности воздуха и скорости ветра на теплоощущения человека.
Tes - Эффективная температура на солнце - температура, которую ощущает человек, с поправкой на солнечный нагрев. Характеристика знойности погоды. Зависит от высоты солнца над горизонтом, облачности и скорости ветра. Ночью, в пасмурную погоду, а также при ветре 12 м/с и более поправка равна нулю.
P - Атмосферное давление - приведенное к уровню моря атмосферное давление.
Po - Атмосферное давление - измеренное на уровне метеостанции атмосферное давление.
Tmin - Минимальная температура - минимум температуры воздуха на высоте 2 м над землей.
Tmax - Максимальная температура - максимум температуры воздуха на высоте 2 м над землей.
R - Количество осадков - Количество выпавших осадков за период времени, мм. При наведении курсора мыши на число - период времени, за который выпало указанное количество осадков.
R24 - Количество осадков - Количество выпавших осадков за 24 часа, мм.
S - Снежный покров - Высота снежного покрова, см. При наведении курсора мыши на число - состояние снежного покрова и степень покрытия местности в баллах.